Craig Municipal Airport
KCRG : now visible

Airfield :











YOU CAN JOIN US ON...

 
LOGIN :

Register | Disclaimer

   EN    FR    IT 

 









Legend :    VFR   Marginal VFR   IFR   Intensive IFR   Very Intensive IFR
Visi :
Ceiling :
>= 8 km
>= 3000ft
5 to 8 km
1000 to 3000 ft
1500m to 5 km
500 to 1000 ft
800 to 1500m
200 to 500 ft
< 800m
< 200 ft
Symbols :   Thunderstorms  Fog  Heavy snow  Heavy precipitations  Wind > 20 kt






- Airport Elevation : 41 ft


KCRG - Craig Municipal

CURRENT METAR :
  • 212053Z 25014G24KT 10SM CLR 29/08 A2990 RMK AO2 SLP124 T02940083 56017

EXPIRED METARs :
  • 211953Z 30007G21KT 10SM CLR 29/10 A2991 RMK AO2 SLP127 T02890100
  • 211853Z 26012G20KT 10SM CLR 29/10 A2993 RMK AO2 SLP135 T02890100

TAF KCRG
Valid from the 21 at 18:00 until the 22 at 18:00 UTC


211752Z 2118/2218 28013G21KT P6SM SKC
FM212300 32008KT P6SM SKC
FM220600 35012G18KT P6SM SKC
FM221300 05011G16KT P6SM FEW250
KZJX FIR / North America



MET'MAP, your aeronautical weather chart ! - Copyright ORBIFLY December 2007 - Disclaimer

ORBIFLY MET'MAP TEAM :

Programming & Development : Alexandra Zaïnal
Concept & original design : Baudouin d'Aumeries
Assistance for programming : Marc-Olivier Méhu
Technical & hardware support : Manuel Goepfert

Contact : metmap@orbifly.com




SOURCES & CREDITS :

   NOAA       Earth
Advisory